Time,TemperatureF,DewpointF,PressureIn,WindDirection,WindDirectionDegrees,WindSpeedMPH,WindSpeedGustMPH,Humidity,HourlyPrecipIn,Conditions,Clouds,dailyrainin,SoftwareType,DateUTC
2013-05-29 00:22:00,58.0,55.0,29.74,East,90,0.0,0.0,89,-99.99,,,-99.99,,2013-05-29 05:22:00,
2013-05-29 00:33:00,58.0,55.0,29.74,East,90,0.0,0.0,89,-99.99,,,-99.99,,2013-05-29 05:33:00,
2013-05-29 00:42:00,58.0,55.0,29.74,East,90,0.0,0.0,89,-99.99,,,-99.99,,2013-05-29 05:42:00,
2013-05-29 00:52:00,58.0,55.0,29.74,East,90,0.0,0.0,89,-99.99,,,-99.99,,2013-05-29 05:52:00,
2013-05-29 01:01:00,58.0,55.0,29.74,NE,45,0.0,0.0,89,-99.99,,,-99.99,,2013-05-29 06:01:00,
2013-05-29 01:11:00,58.0,55.0,29.74,NE,45,0.0,0.0,89,-99.99,,,-99.99,,2013-05-29 06:11:00,
2013-05-29 01:21:00,58.0,55.0,29.74,NE,45,0.0,0.0,89,-99.99,,,-99.99,,2013-05-29 06:21:00,
2013-05-29 01:31:00,58.0,55.0,29.73,SE,135,0.0,0.0,89,-99.99,,,-99.99,,2013-05-29 06:31:00,
2013-05-29 01:42:00,58.0,55.0,29.73,SE,135,0.0,0.0,89,-99.99,,,-99.99,,2013-05-29 06:42:00,
2013-05-29 01:52:00,58.0,55.0,29.74,SE,135,0.0,0.0,89,-99.99,,,-99.99,,2013-05-29 06:52:00,
2013-05-29 02:01:00,58.0,55.0,29.73,SE,135,0.0,0.0,89,-99.99,,,-99.99,,2013-05-29 07:01:00,
2013-05-29 02:11:00,58.0,55.0,29.73,SE,135,0.0,0.0,89,-99.99,,,-99.99,,2013-05-29 07:11:00,
2013-05-29 02:21:00,58.0,55.0,29.75,SE,135,0.0,0.0,89,-99.99,,,-99.99,,2013-05-29 07:21:00,
2013-05-29 02:34:00,58.0,55.0,29.75,SE,135,0.0,0.0,89,-99.99,,,-99.99,,2013-05-29 07:34:00,
2013-05-29 02:42:00,58.0,55.0,29.75,SE,135,0.0,0.0,89,-99.99,,,-99.99,,2013-05-29 07:42:00,
2013-05-29 02:52:00,58.0,55.0,29.75,SW,225,0.0,0.0,89,-99.99,,,-99.99,,2013-05-29 07:52:00,
2013-05-29 03:02:00,58.0,55.0,29.75,SW,225,0.0,0.0,89,-99.99,,,-99.99,,2013-05-29 08:02:00,
2013-05-29 03:11:00,58.0,55.0,29.75,SW,225,0.0,0.0,89,-99.99,,,-99.99,,2013-05-29 08:11:00,
2013-05-29 03:21:00,58.0,55.0,29.74,East,90,0.0,0.0,90,-99.99,,,-99.99,,2013-05-29 08:21:00,
2013-05-29 03:32:00,58.0,55.0,29.74,East,90,0.0,0.0,90,-99.99,,,-99.99,,2013-05-29 08:32:00,
2013-05-29 03:42:00,58.0,55.0,29.74,East,90,0.0,0.0,90,-99.99,,,-99.99,,2013-05-29 08:42:00,
2013-05-29 03:52:00,58.0,55.0,29.74,SE,135,0.0,0.0,90,-99.99,,,-99.99,,2013-05-29 08:52:00,
2013-05-29 04:01:00,58.0,55.0,29.74,South,180,0.0,0.0,90,-99.99,,,-99.99,,2013-05-29 09:01:00,
2013-05-29 04:11:00,58.0,55.0,29.74,South,180,0.0,0.0,90,-99.99,,,-99.99,,2013-05-29 09:11:00,
2013-05-29 04:21:00,58.0,55.0,29.75,South,180,0.0,0.0,90,-99.99,,,-99.99,,2013-05-29 09:21:00,
2013-05-29 04:31:00,58.0,55.0,29.74,West,270,0.0,0.0,91,-99.99,,,-99.99,,2013-05-29 09:31:00,
2013-05-29 04:33:00,58.0,55.0,29.75,South,180,0.0,0.0,90,-99.99,,,-99.99,,2013-05-29 09:33:00,
2013-05-29 04:42:00,58.0,55.0,29.75,South,180,0.0,0.0,90,-99.99,,,-99.99,,2013-05-29 09:42:00,
2013-05-29 04:52:00,58.0,55.0,29.74,West,270,0.0,0.0,91,-99.99,,,-99.99,,2013-05-29 09:52:00,
2013-05-29 05:03:00,58.0,55.0,29.74,West,270,0.0,0.0,91,-99.99,,,-99.99,,2013-05-29 10:03:00,
2013-05-29 05:12:00,58.0,55.0,29.74,West,270,0.0,0.0,91,-99.99,,,-99.99,,2013-05-29 10:12:00,
2013-05-29 05:22:00,58.0,55.0,29.74,West,270,0.0,0.0,91,-99.99,,,-99.99,,2013-05-29 10:22:00,
2013-05-29 05:41:00,58.0,55.0,29.78,South,180,0.0,2.0,91,-99.99,,,-99.99,,2013-05-29 10:41:00,
2013-05-29 05:53:00,58.0,55.0,29.75,South,180,0.0,0.0,90,-99.99,,,-99.99,,2013-05-29 10:53:00,
2013-05-29 06:02:00,58.0,55.0,29.78,South,180,0.0,2.0,91,-99.99,,,-99.99,,2013-05-29 11:02:00,
2013-05-29 06:12:00,58.0,55.0,29.78,South,180,0.0,2.0,91,-99.99,,,-99.99,,2013-05-29 11:12:00,
2013-05-29 06:22:00,58.0,55.0,29.78,South,180,0.0,2.0,91,-99.99,,,-99.99,,2013-05-29 11:22:00,
2013-05-29 06:32:00,58.0,55.0,29.78,South,180,0.0,2.0,91,-99.99,,,-99.99,,2013-05-29 11:32:00,
2013-05-29 06:52:00,59.0,56.0,29.80,South,180,0.0,0.0,91,-99.99,,,-99.99,,2013-05-29 11:52:00,
2013-05-29 07:01:00,59.0,56.0,29.80,South,180,0.0,0.0,91,-99.99,,,-99.99,,2013-05-29 12:01:00,
2013-05-29 07:11:00,59.0,56.0,29.80,South,180,0.0,0.0,91,-99.99,,,-99.99,,2013-05-29 12:11:00,
2013-05-29 07:21:00,59.0,56.0,29.80,South,180,0.0,0.0,91,-99.99,,,-99.99,,2013-05-29 12:21:00,
2013-05-29 07:32:00,59.0,57.0,29.80,SE,135,0.0,1.0,92,-99.99,,,-99.99,,2013-05-29 12:32:00,
2013-05-29 07:41:00,60.0,58.0,29.80,East,90,0.0,0.0,92,-99.99,,,-99.99,,2013-05-29 12:41:00,
2013-05-29 07:42:00,59.0,57.0,29.80,SE,135,0.0,1.0,92,-99.99,,,-99.99,,2013-05-29 12:42:00,
2013-05-29 07:52:00,60.0,58.0,29.80,NE,45,0.0,1.0,92,-99.99,,,-99.99,,2013-05-29 12:52:00,
2013-05-29 08:02:00,60.0,58.0,29.80,East,90,0.0,0.0,92,-99.99,,,-99.99,,2013-05-29 13:02:00,
2013-05-29 08:11:00,60.0,58.0,29.80,East,90,0.0,0.0,92,-99.99,,,-99.99,,2013-05-29 13:11:00,
2013-05-29 08:21:00,60.0,58.0,29.80,East,90,0.0,0.0,92,-99.99,,,-99.99,,2013-05-29 13:21:00,
2013-05-29 08:32:00,60.0,58.0,29.80,East,90,0.0,0.0,92,-99.99,,,-99.99,,2013-05-29 13:32:00,
2013-05-29 08:53:00,62.0,59.0,29.80,South,180,0.0,0.0,91,-99.99,,,-99.99,,2013-05-29 13:53:00,
2013-05-29 09:02:00,62.0,59.0,29.80,East,90,0.0,1.0,91,-99.99,,,-99.99,,2013-05-29 14:02:00,
2013-05-29 09:11:00,62.0,59.0,29.80,East,90,0.0,1.0,91,-99.99,,,-99.99,,2013-05-29 14:11:00,
2013-05-29 09:21:00,62.0,59.0,29.81,East,90,0.0,1.0,90,-99.99,,,-99.99,,2013-05-29 14:21:00,
2013-05-29 09:32:00,62.0,59.0,29.81,East,90,0.0,1.0,90,-99.99,,,-99.99,,2013-05-29 14:32:00,
2013-05-29 09:41:00,62.0,59.0,29.81,East,90,0.0,1.0,90,-99.99,,,-99.99,,2013-05-29 14:41:00,
2013-05-29 09:52:00,63.0,60.0,29.81,East,90,0.0,3.0,89,-99.99,,,-99.99,,2013-05-29 14:52:00,
2013-05-29 10:01:00,63.0,60.0,29.81,ESE,117,0.0,3.0,89,-99.99,,,-99.99,,2013-05-29 15:01:00,
2013-05-29 10:11:00,63.0,60.0,29.81,SE,139,1.0,1.0,90,-99.99,,,-99.99,,2013-05-29 15:11:00,
2013-05-29 10:21:00,63.0,60.0,29.81,SE,139,1.0,1.0,90,-99.99,,,-99.99,,2013-05-29 15:21:00,
2013-05-29 10:33:00,64.0,61.0,29.81,ESE,112,1.0,2.0,89,-99.99,,,-99.99,,2013-05-29 15:33:00,
2013-05-29 10:42:00,64.0,61.0,29.81,ESE,112,1.0,2.0,89,-99.99,,,-99.99,,2013-05-29 15:42:00,
2013-05-29 10:53:00,65.0,61.0,29.81,ESE,108,0.0,2.0,88,-99.99,,,-99.99,,2013-05-29 15:53:00,
2013-05-29 11:03:00,65.0,61.0,29.81,ESE,108,0.0,2.0,88,-99.99,,,-99.99,,2013-05-29 16:03:00,
2013-05-29 11:12:00,65.0,61.0,29.81,ESE,108,0.0,2.0,88,-99.99,,,-99.99,,2013-05-29 16:12:00,
2013-05-29 11:22:00,70.0,64.0,29.81,SE,135,1.0,2.0,81,-99.99,,,-99.99,,2013-05-29 16:22:00,
2013-05-29 11:32:00,72.0,65.0,29.82,East,90,0.0,0.0,79,-99.99,,,-99.99,,2013-05-29 16:32:00,
2013-05-29 11:41:00,75.0,64.0,29.82,ESE,103,1.0,3.0,69,-99.99,,,-99.99,,2013-05-29 16:41:00,
2013-05-29 11:42:00,72.0,65.0,29.82,East,90,0.0,0.0,79,-99.99,,,-99.99,,2013-05-29 16:42:00,
2013-05-29 11:52:00,75.0,65.0,29.82,NNW,342,1.0,3.0,72,-99.99,,,-99.99,,2013-05-29 16:52:00,
2013-05-29 12:02:00,75.0,64.0,29.82,ESE,103,1.0,3.0,69,-99.99,,,-99.99,,2013-05-29 17:02:00,
2013-05-29 12:12:00,75.0,64.0,29.82,ESE,103,1.0,3.0,69,-99.99,,,-99.99,,2013-05-29 17:12:00,
2013-05-29 12:22:00,75.0,64.0,29.82,ESE,103,1.0,3.0,69,-99.99,,,-99.99,,2013-05-29 17:22:00,
2013-05-29 12:32:00,75.0,64.0,29.82,ESE,103,1.0,3.0,69,-99.99,,,-99.99,,2013-05-29 17:32:00,
2013-05-29 12:52:00,78.0,64.0,29.81,NW,315,0.0,2.0,62,-99.99,,,-99.99,,2013-05-29 17:52:00,
2013-05-29 13:01:00,78.0,64.0,29.81,NW,315,0.0,2.0,62,-99.99,,,-99.99,,2013-05-29 18:01:00,
2013-05-29 13:13:00,78.0,64.0,29.81,NW,315,0.0,2.0,62,-99.99,,,-99.99,,2013-05-29 18:13:00,
2013-05-29 13:22:00,78.0,64.0,29.81,NW,315,0.0,2.0,62,-99.99,,,-99.99,,2013-05-29 18:22:00,
2013-05-29 13:32:00,81.0,64.0,29.80,South,174,0.0,3.0,57,-99.99,,,-99.99,,2013-05-29 18:32:00,
2013-05-29 13:42:00,81.0,64.0,29.80,South,174,0.0,3.0,57,-99.99,,,-99.99,,2013-05-29 18:42:00,
2013-05-29 13:52:00,82.0,64.0,29.81,SE,135,1.0,4.0,54,-99.99,,,-99.99,,2013-05-29 18:52:00,
2013-05-29 14:02:00,83.0,65.0,29.80,SE,146,0.0,1.0,54,-99.99,,,-99.99,,2013-05-29 19:02:00,
2013-05-29 14:11:00,84.0,65.0,29.80,SE,135,0.0,2.0,53,-99.99,,,-99.99,,2013-05-29 19:11:00,
2013-05-29 14:21:00,84.0,65.0,29.80,SE,135,0.0,2.0,53,-99.99,,,-99.99,,2013-05-29 19:21:00,
2013-05-29 14:32:00,84.0,65.0,29.80,SE,135,0.0,2.0,53,-99.99,,,-99.99,,2013-05-29 19:32:00,
2013-05-29 14:41:00,86.0,63.0,29.79,South,182,1.0,3.0,47,-99.99,,,-99.99,,2013-05-29 19:41:00,
2013-05-29 14:44:00,85.0,64.0,29.79,WNW,300,1.0,2.0,50,-99.99,,,-99.99,,2013-05-29 19:44:00,
2013-05-29 14:52:00,85.0,64.0,29.79,WNW,300,1.0,2.0,50,-99.99,,,-99.99,,2013-05-29 19:52:00,
2013-05-29 15:03:00,86.0,63.0,29.79,South,182,1.0,3.0,47,-99.99,,,-99.99,,2013-05-29 20:03:00,
2013-05-29 15:11:00,86.0,63.0,29.79,South,182,1.0,3.0,47,-99.99,,,-99.99,,2013-05-29 20:11:00,
2013-05-29 15:22:00,86.0,63.0,29.79,South,182,1.0,3.0,47,-99.99,,,-99.99,,2013-05-29 20:22:00,
2013-05-29 15:33:00,86.0,63.0,29.79,South,182,1.0,3.0,47,-99.99,,,-99.99,,2013-05-29 20:33:00,
2013-05-29 16:21:00,86.0,86.0,29.76,East,90,0.0,5.0,100,-99.99,,,-99.99,,2013-05-29 21:21:00,
2013-05-29 16:33:00,86.0,59.0,29.76,South,175,1.0,6.0,40,-99.99,,,-99.99,,2013-05-29 21:33:00,
2013-05-29 16:44:00,86.0,59.0,29.76,South,175,1.0,6.0,40,-99.99,,,-99.99,,2013-05-29 21:44:00,
2013-05-29 16:53:00,86.0,86.0,29.76,East,90,0.0,5.0,100,-99.99,,,-99.99,,2013-05-29 21:53:00,
2013-05-29 17:03:00,86.0,86.0,29.76,East,90,0.0,5.0,100,-99.99,,,-99.99,,2013-05-29 22:03:00,
2013-05-29 17:11:00,85.0,61.0,29.74,NE,35,2.0,4.0,44,-99.99,,,-99.99,,2013-05-29 22:11:00,
2013-05-29 17:12:00,86.0,86.0,29.76,East,90,0.0,5.0,100,-99.99,,,-99.99,,2013-05-29 22:12:00,
2013-05-29 17:34:00,85.0,61.0,29.74,NE,35,2.0,4.0,44,-99.99,,,-99.99,,2013-05-29 22:34:00,
2013-05-29 17:42:00,85.0,61.0,29.74,NE,35,2.0,4.0,44,-99.99,,,-99.99,,2013-05-29 22:42:00,
2013-05-29 17:53:00,85.0,61.0,29.74,NE,35,2.0,4.0,44,-99.99,,,-99.99,,2013-05-29 22:53:00,
2013-05-29 18:02:00,85.0,61.0,29.74,NE,35,2.0,4.0,44,-99.99,,,-99.99,,2013-05-29 23:02:00,
2013-05-29 18:51:00,79.0,61.0,29.76,SSW,213,2.0,3.0,55,-99.99,,,-99.99,,2013-05-29 23:51:00,
2013-05-29 19:21:00,79.0,61.0,29.76,SSW,213,2.0,3.0,55,-99.99,,,-99.99,,2013-05-30 00:21:00,
2013-05-29 19:32:00,79.0,61.0,29.76,SSW,213,2.0,3.0,55,-99.99,,,-99.99,,2013-05-30 00:32:00,
2013-05-29 19:42:00,79.0,61.0,29.76,SSW,213,2.0,3.0,55,-99.99,,,-99.99,,2013-05-30 00:42:00,
2013-05-29 20:52:00,69.0,60.0,29.81,NE,45,1.0,6.0,73,-99.99,,,-99.99,,2013-05-30 01:52:00,
2013-05-29 21:01:00,69.0,60.0,29.81,NE,45,1.0,6.0,73,-99.99,,,-99.99,,2013-05-30 02:01:00,
2013-05-29 21:11:00,69.0,60.0,29.81,NE,45,1.0,6.0,73,-99.99,,,-99.99,,2013-05-30 02:11:00,
2013-05-29 21:21:00,67.0,60.0,29.83,East,90,0.0,0.0,78,-99.99,,,-99.99,,2013-05-30 02:21:00,
2013-05-29 21:32:00,67.0,60.0,29.83,East,90,0.0,0.0,78,-99.99,,,-99.99,,2013-05-30 02:32:00,
2013-05-29 21:42:00,67.0,60.0,29.83,East,90,0.0,0.0,78,-99.99,,,-99.99,,2013-05-30 02:42:00,
2013-05-29 21:52:00,67.0,60.0,29.83,East,90,0.0,0.0,78,-99.99,,,-99.99,,2013-05-30 02:52:00,
2013-05-29 22:12:00,66.0,59.0,29.79,SE,135,0.0,0.0,79,-99.99,,,-99.99,,2013-05-30 03:12:00,
2013-05-29 22:21:00,66.0,59.0,29.79,SE,135,0.0,0.0,79,-99.99,,,-99.99,,2013-05-30 03:21:00,
2013-05-29 22:33:00,66.0,59.0,29.79,SE,135,0.0,0.0,79,-99.99,,,-99.99,,2013-05-30 03:33:00,
2013-05-29 22:43:00,66.0,59.0,29.79,SE,135,0.0,0.0,79,-99.99,,,-99.99,,2013-05-30 03:43:00,
2013-05-29 22:53:00,66.0,60.0,29.78,SE,135,0.0,0.0,81,-99.99,,,-99.99,,2013-05-30 03:53:00,
2013-05-29 23:02:00,66.0,60.0,29.78,SE,135,0.0,0.0,81,-99.99,,,-99.99,,2013-05-30 04:02:00,
2013-05-29 23:12:00,66.0,60.0,29.78,SE,135,0.0,0.0,81,-99.99,,,-99.99,,2013-05-30 04:12:00,
2013-05-29 23:23:00,65.0,60.0,29.80,SE,135,0.0,0.0,83,-99.99,,,-99.99,,2013-05-30 04:23:00,
2013-05-29 23:31:00,65.0,61.0,29.79,SE,135,0.0,0.0,86,-99.99,,,-99.99,,2013-05-30 04:31:00,
2013-05-29 23:33:00,65.0,60.0,29.79,South,180,1.0,1.0,84,-99.99,,,-99.99,,2013-05-30 04:33:00,
2013-05-29 23:42:00,65.0,60.0,29.79,South,180,1.0,1.0,84,-99.99,,,-99.99,,2013-05-30 04:42:00,
2013-05-29 23:53:00,65.0,61.0,29.79,SE,135,0.0,0.0,86,-99.99,,,-99.99,,2013-05-30 04:53:00,